LEMUR-2-ANGELA (42752 NORAD) Tracking and Keplerian Element Data

This shows tracking and keplerian element data for the satellite.

Feedback or suggestion? Click here.




ElementValue
Catalog42752
NameLEMUR-2-ANGELA
Epoch Orbit3844
Epoch Day46.1590738
Epoch Year2018
RAAN315.8264
Inclination51.6421
Eccentricity0.0011023
Argument of Perigee128.9671
Mean Anonmoly231.2293
Mean Motion15.28609317
Decay Rate2.476E-05
L11 42752U 17019B 18046.15907380 .00002476 00000-0 10026-3 0 9991
L22 42752 51.6421 315.8264 0011023 128.9671 231.2293 15.28609317 38444

Live tracking and technical data element details for LEMUR-2-ANGELA (NORAD 42752). LEMUR-2-ANGELA can be tracked NOW for your location showing map with azimuth and elevation plus other details from your city location.

Track the satellite on the map from your city or location and see movement details for azimuth, elevation, latitude, longitude, range, height, and movement on the map or in text.







IsCatalogInMostPopularTable: catalog: 42752, numindb: 149
Update: records affected: 1



GetName: 42752 LEMUR-2-ANGELA

Hit Count: updated at: Tue, 11 Dec 2018 02:34:45 GMT